Weather History for Moorhead, MN

Change the Weather History Date:

Sunday, December 9, 2012

  Actual Average (KFAR) Record (KFAR)
Temperature  
Mean Temperature 8 °F 16 °F  
Max Temperature 21 °F 24 °F 56 °F (1990)
Min Temperature -5 °F 8 °F -26 °F (1977)
Degree Days  
Heating Degree Days 57 49  
Month to date heating degree days 424  
Since 1 July heating degree days 2386  
Cooling Degree Days 0 0  
Month to date cooling degree days 0  
Year to date cooling degree days 551  
Moisture  
Dew Point 5 °F    
Average Humidity 88    
Maximum Humidity 100    
Minimum Humidity 71    
Precipitation  
Precipitation 0.00 in 0.02 in 0.24 in (1918)
Month to date precipitation 0.24  
Year to date precipitation 22.02  
Snow  
Snow 0.00 in 0.30 in 2.40 in (1936)
Month to date snowfall 3.1  
Since 1 July snowfall 11.7  
Snow Depth -    
Sea Level Pressure  
Sea Level Pressure 30.16 in    
Wind  
Wind Speed 22 mph (North)    
Max Wind Speed 33 mph    
Max Gust Speed 39 mph    
Visibility 6 miles    
Events      
T = Trace of Precipitation, MM = Missing Value Source: NWS Daily Summary

Daily Weather History Graph

Daily Weather History Graph

Search for Another Location

Airport:

Trip Planner

Search our weather history database for the weather conditions in past years. The results will help you decide how hot, cold, wet, or windy it might be!

Date:

Astronomy

Dec. 09, 2012 Rise Set
Actual Time 8:00 AM CST 4:38 PM CST
Civil Twilight 7:25 AM CST 5:13 PM CST
Nautical Twilight 6:46 AM CST 5:51 PM CST
Astronomical Twilight 6:09 AM CST 6:28 PM CST
Moon 3:22 AM CST (12/9) 1:55 PM CST (12/9)
Length of Visible Light 9h 47m
Length of Day
8h 37m
Waning Crescent, 18% of the Moon is Illuminated
Dec 9
Waning Crescent
Dec 13
New
Dec 19
First Quarter
Dec 28
Full
Jan 4
Last Quarter

Hourly Weather History & Observations

Time (CST) Temp. Windchill Dew Point Humidity Pressure Visibility Wind Dir Wind Speed Gust Speed Precip Events Conditions
12:15 AM 21.2 °F 8.3 °F 21.2 °F 100% 30.02 in 1.8 mi North 13.8 mph - N/A   Overcast
12:34 AM 21.2 °F 7.8 °F 21.2 °F 100% 30.02 in 1.8 mi North 15.0 mph - N/A   Overcast
12:55 AM 21.2 °F 6.8 °F 21.2 °F 100% 30.02 in 1.8 mi North 17.3 mph - N/A   Overcast
1:15 AM 21.2 °F 6.4 °F 21.2 °F 100% 30.02 in 1.8 mi North 18.4 mph - N/A   Overcast
1:35 AM 21.2 °F 6.0 °F 21.2 °F 100% 30.02 in 2.0 mi North 19.6 mph 24.2 mph N/A   Overcast
1:55 AM 21.2 °F 4.9 °F 21.2 °F 100% 30.02 in 1.8 mi North 23.0 mph 27.6 mph N/A   Overcast
2:14 AM 21.2 °F 4.9 °F 21.2 °F 100% 30.02 in 1.8 mi North 23.0 mph 31.1 mph N/A   Overcast
2:35 AM 19.4 °F 1.8 °F 19.4 °F 100% 30.02 in 1.5 mi NNE 25.3 mph 29.9 mph N/A   Overcast
2:55 AM 19.4 °F 2.1 °F 19.4 °F 100% 30.03 in 2.5 mi NNE 24.2 mph 29.9 mph N/A   Overcast
3:14 AM 19.4 °F 2.1 °F 19.4 °F 100% 30.04 in 3.0 mi NNE 24.2 mph 29.9 mph N/A   Overcast
3:35 AM 19.4 °F 1.4 °F 17.6 °F 93% 30.03 in 3.0 mi NNE 26.5 mph 29.9 mph N/A   Overcast
3:55 AM 19.4 °F 1.8 °F 17.6 °F 93% 30.04 in 2.0 mi North 25.3 mph 29.9 mph N/A   Overcast
4:14 AM 17.6 °F -0.3 °F 17.6 °F 100% 30.04 in 1.2 mi NNE 24.2 mph 31.1 mph N/A   Overcast
4:35 AM 17.6 °F -1.0 °F 17.6 °F 100% 30.05 in 1.8 mi NNE 26.5 mph 32.2 mph N/A   Overcast
4:55 AM 17.6 °F -1.3 °F 15.8 °F 93% 30.06 in 1.8 mi North 27.6 mph - N/A   Overcast
5:14 AM 17.6 °F -1.3 °F 15.8 °F 93% 30.07 in 2.0 mi NNE 27.6 mph 34.5 mph N/A   Overcast
5:35 AM 17.6 °F -0.6 °F 15.8 °F 93% 30.08 in 2.0 mi NNE 25.3 mph 32.2 mph N/A   Overcast
5:55 AM 15.8 °F -3.4 °F 15.8 °F 100% 30.08 in 2.5 mi North 26.5 mph 29.9 mph N/A   Overcast
6:14 AM 15.8 °F -3.4 °F 15.8 °F 100% 30.09 in 3.0 mi North 26.5 mph 29.9 mph N/A   Overcast
6:35 AM 14.0 °F -5.1 °F 14.0 °F 100% 30.11 in 1.8 mi North 24.2 mph 32.2 mph N/A   Overcast
6:55 AM 12.2 °F -7.5 °F 12.2 °F 100% 30.12 in 1.5 mi North 24.2 mph 31.1 mph N/A   Overcast
7:14 AM 10.4 °F -10.7 °F 10.4 °F 100% 30.13 in 1.0 mi North 26.5 mph 35.7 mph N/A   Overcast
7:35 AM 10.4 °F -11.7 °F 8.6 °F 92% 30.14 in 1.2 mi North 29.9 mph 35.7 mph N/A   Overcast
7:55 AM 8.6 °F -13.8 °F 6.8 °F 92% 30.15 in 1.5 mi North 28.8 mph 33.4 mph N/A   Overcast
8:14 AM 8.6 °F -13.4 °F 6.8 °F 92% 30.15 in 1.0 mi North 27.6 mph 33.4 mph N/A   Overcast
8:35 AM 6.8 °F -15.9 °F 6.8 °F 100% 30.17 in 0.8 mi North 27.6 mph 32.2 mph N/A   Overcast
8:55 AM 6.8 °F -14.7 °F 3.2 °F 85% 30.18 in 1.5 mi North 24.2 mph - N/A   Overcast
9:35 AM 5.0 °F -18.3 °F 3.2 °F 92% 30.19 in 1.5 mi North 27.6 mph 33.4 mph N/A   Overcast
9:55 AM 5.0 °F -19.0 °F 1.4 °F 85% 30.19 in 1.2 mi North 29.9 mph 36.8 mph N/A   Mostly Cloudy
10:35 AM 3.2 °F -21.8 °F 1.4 °F 92% 30.20 in 1.2 mi North 31.1 mph 36.8 mph N/A   Clear
10:55 AM 3.2 °F -20.7 °F 1.4 °F 92% 30.21 in 1.5 mi North 27.6 mph 38.0 mph N/A   Clear
11:14 AM 5.0 °F -19.0 °F 1.4 °F 85% 30.21 in 2.0 mi North 29.9 mph 35.7 mph N/A   Clear
11:35 AM 5.0 °F -19.0 °F 1.4 °F 85% 30.21 in 3.0 mi North 29.9 mph 35.7 mph N/A   Clear
11:54 AM 5.0 °F -19.0 °F 1.4 °F 85% 30.20 in 5.0 mi North 29.9 mph 33.4 mph N/A   Clear
12:15 PM 5.0 °F -19.4 °F -0.4 °F 78% 30.20 in 5.0 mi North 31.1 mph 38.0 mph N/A   Haze
12:35 PM 6.8 °F -16.6 °F 1.4 °F 79% 30.19 in 5.0 mi North 29.9 mph 38.0 mph N/A   Haze
12:54 PM 6.8 °F -17.6 °F 1.4 °F 79% 30.19 in 2.5 mi North 33.4 mph 39.1 mph N/A   Clear
1:15 PM 6.8 °F -16.9 °F 1.4 °F 79% 30.19 in 7.0 mi North 31.1 mph 38.0 mph N/A   Clear
1:35 PM 6.8 °F -16.9 °F 1.4 °F 79% 30.19 in 5.0 mi North 31.1 mph 39.1 mph N/A   Clear
1:54 PM 6.8 °F -17.3 °F 1.4 °F 79% 30.19 in 7.0 mi North 32.2 mph 38.0 mph N/A   Clear
2:15 PM 6.8 °F -16.9 °F 1.4 °F 79% 30.20 in 10.0 mi North 31.1 mph 35.7 mph N/A   Clear
2:35 PM 6.8 °F -16.6 °F 1.4 °F 79% 30.20 in 10.0 mi North 29.9 mph 34.5 mph N/A   Clear
2:55 PM 6.8 °F -15.9 °F 1.4 °F 79% 30.20 in 10.0 mi North 27.6 mph 35.7 mph N/A   Clear
3:15 PM 6.8 °F -15.1 °F 1.4 °F 79% 30.21 in 10.0 mi North 25.3 mph 33.4 mph N/A   Clear
3:34 PM 5.0 °F -17.5 °F 1.4 °F 85% 30.21 in 10.0 mi North 25.3 mph - N/A   Clear
3:55 PM 5.0 °F -17.5 °F -0.4 °F 78% 30.22 in 10.0 mi North 25.3 mph 28.8 mph N/A   Scattered Clouds
4:15 PM 3.2 °F -17.6 °F 1.4 °F 92% 30.23 in 10.0 mi North 19.6 mph - N/A   Mostly Cloudy
4:34 PM 3.2 °F -18.6 °F -0.4 °F 85% 30.23 in 5.0 mi North 21.9 mph - N/A   Overcast
4:55 PM 3.2 °F -18.1 °F -0.4 °F 85% 30.23 in 7.0 mi North 20.7 mph - N/A   Overcast
5:15 PM 1.4 °F -18.8 °F -0.4 °F 92% 30.23 in 10.0 mi North 17.3 mph - N/A   Overcast
5:34 PM 1.4 °F -19.9 °F -0.4 °F 92% 30.24 in 10.0 mi North 19.6 mph - N/A   Overcast
5:55 PM 1.4 °F -19.4 °F -2.2 °F 85% 30.25 in 10.0 mi North 18.4 mph - N/A   Overcast
6:15 PM 1.4 °F -19.9 °F -2.2 °F 85% 30.25 in 10.0 mi North 19.6 mph 25.3 mph N/A   Scattered Clouds
6:34 PM -0.4 °F -22.8 °F -4.0 °F 85% 30.25 in 10.0 mi North 20.7 mph - N/A   Scattered Clouds
6:55 PM -0.4 °F -22.3 °F -5.8 °F 78% 30.24 in 10.0 mi North 19.6 mph - N/A   Clear
7:14 PM -0.4 °F -21.2 °F -5.8 °F 78% 30.25 in 10.0 mi North 17.3 mph - N/A   Clear
7:35 PM -0.4 °F -21.7 °F -5.8 °F 78% 30.25 in 10.0 mi North 18.4 mph - N/A   Clear
8:14 PM -2.2 °F -22.9 °F -7.6 °F 78% 30.24 in 10.0 mi North 16.1 mph - N/A   Clear
8:35 PM -2.2 °F -22.2 °F -7.6 °F 78% 30.23 in 10.0 mi North 15.0 mph - N/A   Clear
8:55 PM -2.2 °F -21.5 °F -9.4 °F 71% 30.22 in 10.0 mi North 13.8 mph - N/A   Clear
9:14 PM -2.2 °F -19.9 °F -7.6 °F 78% 30.22 in 10.0 mi North 11.5 mph - N/A   Clear
9:35 PM -2.2 °F -19.9 °F -9.4 °F 71% 30.21 in 10.0 mi North 11.5 mph - N/A   Clear
9:55 PM -4.0 °F -20.2 °F -9.4 °F 78% 30.20 in 10.0 mi North 9.2 mph - N/A   Clear
10:15 PM -4.0 °F -17.8 °F -9.4 °F 78% 30.20 in 10.0 mi North 6.9 mph - N/A   Clear
10:35 PM -4.0 °F -17.8 °F -9.4 °F 78% 30.19 in 10.0 mi North 6.9 mph - N/A   Clear
10:55 PM -5.8 °F -21.2 °F -9.4 °F 84% 30.19 in 10.0 mi North 8.1 mph - N/A   Clear
11:15 PM -5.8 °F -23.4 °F -9.4 °F 84% 30.19 in 10.0 mi North 10.4 mph - N/A   Clear
11:35 PM -5.8 °F -19.9 °F -9.4 °F 84% 30.19 in 10.0 mi North 6.9 mph - N/A   Clear
11:54 PM -5.8 °F -16.7 °F -11.2 °F 77% 30.17 in 10.0 mi North 4.6 mph - N/A   Clear